| time (UTC) | temp F | wind direction | speed MPH | gust MPH | rain 1hr in | rain 24hr in | rain mn in | humidity % | barometer mb |
| 20260502222027 | 64 | 157 | 8.0 | 15.0 | 0.00 | 0.00 | 0.00 | 50 | 16.4 |
| 20260502221027 | 64 | 157 | 8.0 | 15.0 | 0.00 | 0.00 | 0.00 | 50 | 16.4 |
| 20260502220027 | 64 | 157 | 7.0 | 11.0 | 0.00 | 0.00 | 0.00 | 50 | 16.5 |
| 20260502215027 | 65 | 157 | 5.0 | 14.0 | 0.00 | 0.00 | 0.00 | 50 | 16.5 |
| 20260502214027 | 65 | 157 | 5.0 | 10.0 | 0.00 | 0.00 | 0.00 | 50 | 16.5 |
| 20260502213027 | 65 | 157 | 5.0 | 12.0 | 0.00 | 0.00 | 0.00 | 50 | 16.6 |
| 20260502212027 | 65 | 157 | 5.0 | 11.0 | 0.00 | 0.00 | 0.00 | 50 | 16.5 |
| 20260502211027 | 65 | 157 | 5.0 | 10.0 | 0.00 | 0.00 | 0.00 | 50 | 16.5 |
| 20260502210027 | 65 | 157 | 5.0 | 12.0 | 0.00 | 0.00 | 0.00 | 49 | 16.6 |
| 20260502205027 | 65 | 180 | 4.0 | 10.0 | 0.00 | 0.00 | 0.00 | 48 | 16.6 |
| 20260502204027 | 66 | 157 | 6.0 | 12.0 | 0.00 | 0.00 | 0.00 | 48 | 16.7 |
| 20260502203027 | 66 | 157 | 6.0 | 12.0 | 0.00 | 0.00 | 0.00 | 47 | 16.7 |
| 20260502202027 | 66 | 157 | 7.0 | 12.0 | 0.00 | 0.00 | 0.00 | 46 | 16.7 |
| 20260502201027 | 66 | 157 | 7.0 | 11.0 | 0.00 | 0.00 | 0.00 | 46 | 16.6 |
| 20260502200027 | 66 | 157 | 5.0 | 11.0 | 0.00 | 0.00 | 0.00 | 45 | 16.5 |
| 20260502195027 | 66 | 157 | 4.0 | 8.0 | 0.00 | 0.00 | 0.00 | 46 | 16.4 |
| 20260502194027 | 67 | 157 | 6.0 | 11.0 | 0.00 | 0.00 | 0.00 | 45 | 16.3 |
| 20260502193027 | 66 | 157 | 3.0 | 7.0 | 0.00 | 0.00 | 0.00 | 47 | 16.2 |
| 20260502192027 | 66 | 157 | 5.0 | 11.0 | 0.00 | 0.00 | 0.00 | 47 | 16.1 |
| 20260502191027 | 66 | 157 | 4.0 | 7.0 | 0.00 | 0.00 | 0.00 | 49 | 15.9 |
| 20260502190027 | 67 | 157 | 5.0 | 9.0 | 0.00 | 0.00 | 0.00 | 48 | 15.8 |
| 20260502184027 | 67 | 157 | 4.0 | 9.0 | 0.00 | 0.00 | 0.00 | 46 | 15.7 |
| 20260502182027 | 68 | 157 | 3.0 | 9.0 | 0.00 | 0.00 | 0.00 | 46 | 15.6 |
| 20260502181027 | 68 | 157 | 4.0 | 8.0 | 0.00 | 0.00 | 0.00 | 46 | 15.6 |
| 20260502164026 | 73 | 247 | 3.0 | 12.0 | 0.00 | 0.00 | 0.00 | 38 | 16.0 |
| 20260502163026 | 73 | 225 | 4.0 | 9.0 | 0.00 | 0.00 | 0.00 | 37 | 16.1 |
| 20260502161026 | 73 | 225 | 5.0 | 15.0 | 0.00 | 0.00 | 0.00 | 36 | 16.3 |
| 20260502152026 | 74 | 225 | 5.0 | 16.0 | 0.00 | 0.00 | 0.00 | 40 | 16.7 |
| 20260502151026 | 74 | 180 | 5.0 | 12.0 | 0.00 | 0.00 | 0.00 | 39 | 16.8 |
| 20260502122026 | 74 | 157 | 8.0 | 13.0 | 0.00 | 0.00 | 0.00 | 39 | 18.9 |
| 20260502121026 | 75 | 157 | 10.0 | 22.0 | 0.00 | 0.00 | 0.00 | 39 | 19.1 |
| 20260502113026 | 73 | 180 | 6.0 | 13.0 | 0.00 | 0.00 | 0.00 | 45 | 19.4 |
| 20260502111026 | 73 | 202 | 6.0 | 12.0 | 0.00 | 0.00 | 0.00 | 45 | 19.8 |
| 20260502110026 | 73 | 157 | 8.0 | 16.0 | 0.00 | 0.00 | 0.00 | 46 | 19.9 |
| 20260502105026 | 73 | 157 | 11.0 | 21.0 | 0.00 | 0.00 | 0.00 | 45 | 19.9 |
| 20260502103026 | 71 | 180 | 8.0 | 17.0 | 0.00 | 0.00 | 0.00 | 47 | 20.3 |
| 20260502101026 | 71 | 157 | 10.0 | 19.0 | 0.00 | 0.00 | 0.00 | 48 | 20.5 |
| 20260502091026 | 68 | 180 | 9.0 | 20.0 | 0.00 | 0.00 | 0.00 | 55 | 20.8 |
| 20260502071026 | 62 | 157 | 5.0 | 13.0 | 0.00 | 0.00 | 0.00 | 66 | 21.4 |
| 20260502070026 | 61 | 157 | 5.0 | 11.0 | 0.00 | 0.00 | 0.00 | 66 | 21.4 |
| 20260502064025 | 60 | 157 | 5.0 | 10.0 | 0.00 | 0.00 | 0.00 | 67 | 21.3 |
| 20260502063026 | 60 | 180 | 3.0 | 8.0 | 0.00 | 0.00 | 0.00 | 67 | 21.4 |
| 20260502062025 | 58 | 157 | 4.0 | 8.0 | 0.00 | 0.00 | 0.00 | 68 | 21.5 |
| 20260502061025 | 58 | 157 | 4.0 | 9.0 | 0.00 | 0.00 | 0.00 | 68 | 21.5 |
| 20260502060026 | 58 | 157 | 3.0 | 6.0 | 0.00 | 0.00 | 0.00 | 68 | 21.5 |
| 20260502055025 | 58 | 180 | 3.0 | 8.0 | 0.00 | 0.00 | 0.00 | 67 | 21.5 |
| 20260502054025 | 58 | 157 | 4.0 | 12.0 | 0.00 | 0.00 | 0.00 | 66 | 21.5 |
| 20260502053025 | 58 | 157 | 3.0 | 8.0 | 0.00 | 0.00 | 0.00 | 65 | 21.5 |
| 20260502052025 | 58 | 157 | 4.0 | 9.0 | 0.00 | 0.00 | 0.00 | 65 | 21.4 |
| 20260502045025 | 56 | 157 | 3.0 | 6.0 | 0.00 | 0.00 | 0.00 | 66 | 21.4 |
| 20260502044025 | 57 | 157 | 5.0 | 9.0 | 0.00 | 0.00 | 0.00 | 65 | 21.3 |
| 20260502043025 | 56 | 157 | 4.0 | 8.0 | 0.00 | 0.00 | 0.00 | 65 | 21.3 |
| 20260502042025 | 56 | 157 | 4.0 | 7.0 | 0.00 | 0.00 | 0.00 | 66 | 21.5 |
| 20260502041025 | 57 | 157 | 4.0 | 8.0 | 0.00 | 0.00 | 0.00 | 66 | 21.5 |
| 20260502040025 | 57 | 157 | 4.0 | 8.0 | 0.00 | 0.00 | 0.00 | 66 | 21.4 |
| 20260502035025 | 57 | 157 | 4.0 | 8.0 | 0.00 | 0.00 | 0.00 | 66 | 21.4 |
| 20260502033026 | 58 | 157 | 2.0 | 6.0 | 0.00 | 0.00 | 0.00 | 63 | 21.5 |
| 20260502032025 | 58 | 180 | 3.0 | 7.0 | 0.00 | 0.00 | 0.00 | 62 | 21.4 |
| 20260502031025 | 58 | 157 | 4.0 | 9.0 | 0.00 | 0.00 | 0.00 | 65 | 21.4 |
| 20260502025025 | 58 | 202 | 2.0 | 5.0 | 0.00 | 0.00 | 0.00 | 66 | 21.5 |
| 20260502024025 | 58 | 202 | 2.0 | 5.0 | 0.00 | 0.00 | 0.00 | 66 | 21.5 |
| 20260502023027 | 59 | 180 | 2.0 | 5.0 | 0.00 | 0.00 | 0.00 | 65 | 21.4 |
| 20260502022025 | 59 | 225 | 2.0 | 8.0 | 0.00 | 0.00 | 0.00 | 65 | 21.5 |
| 20260502020025 | 59 | 157 | 2.0 | 6.0 | 0.00 | 0.00 | 0.00 | 65 | 21.5 |
| 20260502015025 | 60 | 180 | 2.0 | 7.0 | 0.00 | 0.00 | 0.00 | 65 | 21.5 |
| 20260502014025 | 60 | 247 | 2.0 | 7.0 | 0.00 | 0.00 | 0.00 | 65 | 21.4 |
| 20260502012025 | 61 | 225 | 3.0 | 7.0 | 0.00 | 0.00 | 0.00 | 66 | 21.4 |
| 20260502011025 | 61 | 157 | 5.0 | 11.0 | 0.00 | 0.00 | 0.00 | 67 | 21.4 |
| 20260502004025 | 62 | 157 | 6.0 | 11.0 | 0.00 | 0.00 | 0.00 | 69 | 21.3 |
| 20260502003025 | 62 | 157 | 7.0 | 16.0 | 0.00 | 0.00 | 0.00 | 70 | 21.3 |
| 20260502002025 | 62 | 157 | 6.0 | 11.0 | 0.00 | 0.00 | 0.00 | 72 | 21.4 |
| 20260502001025 | 62 | 157 | 6.0 | 11.0 | 0.00 | 0.00 | 0.00 | 74 | 21.3 |
| 20260502000025 | 62 | 157 | 6.0 | 9.0 | 0.00 | 0.00 | 0.00 | 74 | 21.4 |
| 20260501235025 | 62 | 157 | 6.0 | 11.0 | 0.00 | 0.00 | 0.00 | 74 | 21.4 |
| 20260501234025 | 63 | 157 | 6.0 | 10.0 | 0.00 | 0.00 | 0.00 | 74 | 21.4 |
| 20260501233025 | 63 | 157 | 6.0 | 9.0 | 0.00 | 0.00 | 0.00 | 74 | 21.5 |
| 20260501232025 | 63 | 157 | 5.0 | 9.0 | 0.00 | 0.00 | 0.00 | 74 | 21.5 |
| 20260501230025 | 63 | 157 | 5.0 | 9.0 | 0.00 | 0.00 | 0.00 | 75 | 21.6 |
| 20260501225025 | 63 | 157 | 5.0 | 10.0 | 0.00 | 0.00 | 0.00 | 76 | 21.6 |
| 20260501224024 | 63 | 157 | 4.0 | 8.0 | 0.00 | 0.00 | 0.00 | 76 | 21.7 |
| 20260501223025 | 62 | 157 | 3.0 | 6.0 | 0.00 | 0.00 | 0.00 | 77 | 21.7 |